Home   Weather   Prudhoe Bay   Past weeks

Flag for USA Past Weather in Prudhoe Bay, Alaska, USA — Yesterday and Last 2 Weeks

Now
7 °F

Light snow. Ice fog.


Feels Like: -12 °F
Forecast: 7 / 18 °F
Wind: 17 mph from East

Location: Deadhorse Airport

Current Time: Apr 27, 2017 at 8:37:48 pm

Latest Report: Apr 27, 2017 at 8:08 pm


Visibility: 1 mi

Pressure: 30.13 "Hg

Humidity: 87%

Dew Point: 4 °F

Location of Prudhoe BayLocation

Past Weather in Prudhoe Bay — Graph

°F

Prudhoe Bay Temperature Yesterday

Maximum temperature yesterday: 8 °F (at 12:53 am)
Minimum temperature yesterday: 1 °F (at 11:53 pm)
Average temperature yesterday: 6 °F

High & Low Weather Summary for the Past Weeks

 TemperatureHumidityPressure
High19 °F (Apr 13, 2:53 pm)100% (Apr 19, 8:53 am)30.64 "Hg (Apr 19, 8:53 am)
Low-11 °F (Apr 20, 1:53 am)67% (Apr 18, 1:53 pm)30.01 "Hg (Apr 25, 3:24 pm)
Average5 °F86%30.34 "Hg
* Reported Apr 12 7:09 pm — Apr 27 7:37 pm, Prudhoe Bay, Weather by CustomWeather, © 2017

Note: Actual official high and low records may vary slightly from our data, if they occured in-between our weather recording intervals... More about our weather records

Advertising

Prudhoe Bay Weather History for the Previous 24 Hours

Scroll right to see more
 ConditionsComfort  
Time TempWeatherWind HumidityBarometerVisibility
7:37 pm
Thu, Apr 27
7 °FLight snow. Ice fog.16 mph83%30.13 "Hg3 mi
7:18 pm7 °FLight snow. Ice fog.18 mph83%30.12 "Hg3 mi
6:53 pm7 °FLight snow. Ice fog.18 mph79%30.13 "Hg3 mi
6:23 pm6 °FLight snow. Ice fog.17 mph83%30.12 "Hg3 mi
6:02 pm6 °FOvercast.17 mph79%30.12 "Hg10 mi
5:01 pm6 °FIce fog.20 mph79%30.11 "Hg3 mi
3:53 pm5 °FIce fog.17 mph80%30.11 "Hg4 mi
2:53 pm5 °FScattered clouds.20 mph80%30.10 "Hg9 mi
1:53 pm4 °FScattered clouds.20 mph84%30.10 "Hg10 mi
12:53 pm3 °FScattered clouds.21 mph79%30.10 "Hg7 mi
12:08 pm3 °FIce fog.21 mph79%30.09 "Hg6 mi
11:11 am2 °FPartly sunny.20 mph83%30.08 "Hg6 mi
10:53 am2 °FLow level haze.22 mph83%30.08 "Hg4 mi
10:01 am1 °FIce fog.21 mph83%30.08 "Hg3 mi
8:53 am0 °FIce fog.22 mph83%30.07 "Hg2 mi
8:34 am0 °FIce fog.22 mph79%30.07 "Hg2 mi
7:53 am-1 °FIce fog.21 mph82%30.07 "Hg3 mi
6:53 am-3 °FIce fog.20 mph82%30.07 "Hg4 mi
5:53 am-2 °FIce fog.20 mph83%30.07 "Hg3 mi
5:33 am-2 °FIce fog.18 mph83%30.07 "Hg3 mi
4:55 am-1 °FIce fog.18 mph79%30.06 "Hg3 mi
3:53 am0 °FPassing clouds.15 mph83%30.06 "Hg10 mi
2:53 am1 °FPassing clouds.17 mph83%30.06 "Hg10 mi
1:53 am0 °FPassing clouds.14 mph83%30.06 "Hg10 mi
12:53 am0 °FPassing clouds.14 mph83%30.07 "Hg10 mi
12:03 am1 °FPassing clouds.16 mph87%30.06 "Hg10 mi
11:53 pm
Wed, Apr 26
1 °FClear.14 mph83%30.07 "Hg10 mi
10:53 pm2 °FPassing clouds.15 mph83%30.07 "Hg10 mi
10:00 pm3 °FIce fog.15 mph84%30.07 "Hg4 mi
8:56 pm4 °FIce fog.21 mph88%30.07 "Hg3 mi
8:44 pm4 °FIce fog.20 mph84%30.07 "Hg2 mi
8:27 pm5 °FIce fog.21 mph83%30.07 "Hg1 mi
8:21 pm5 °FIce fog.21 mph83%30.07 "Hg2 mi
8:00 pm5 °FIce fog.22 mph83%30.07 "Hg1 mi
Weather by CustomWeather, © 2017

See weather overviewHow to use our weather pages